Precipitable_Water
0.25 0.25 0.27 0.27 0.29 0.21 0.29 0.32 0.28 0.30 0.40 0.35 0.30 0.30 0.31 0.28 0.25 0.19 0.30 0.45 0.58 0.72 0.75 0.81 0.83 0.80 0.82 0.86 0.87 0.92 0.93 0.94 1.03 1.08 1.15 1.22 1.27 1.32 1.34 1.34 1.42 1.61 1.75 1.79 1.81 1.83 1.82 1.79 1.78 1.76 1.74 1.73 1.70 1.69 1.67 1.66 1.66 1.68 1.65 1.61 1.54 1.51 1.50
0.26 0.28 0.28 0.28 0.28 0.32 0.32 0.25 0.30 0.37 0.40 0.37 0.31 0.26 0.26 0.23 0.19 0.27 0.33 0.33 0.40 0.43 0.44 0.76 0.74 0.75 0.75 0.78 0.81 0.85 0.92 0.93 0.93 1.02 1.10 1.16 1.23 1.29 1.37 1.41 1.48 1.54 1.65 1.77 1.82 1.88 1.87 1.84 1.84 1.79 1.79 1.80 1.81 1.79 1.75 1.71 1.68 1.65 1.67 1.66 1.61 1.58 1.52
0.26 0.28 0.27 0.25 0.28 0.32 0.30 0.28 0.35 0.27 0.24 0.22 0.27 0.30 0.20 0.19 0.18 0.29 0.29 0.39 0.38 0.40 0.52 0.65 0.67 0.67 0.71 0.76 0.79 0.80 0.82 0.90 0.92 1.00 1.06 1.12 1.19 1.24 1.29 1.35 1.43 1.53 1.61 1.72 1.83 1.88 1.91 1.88 1.88 1.86 1.83 1.83 1.80 1.79 1.79 1.79 1.75 1.74 1.73 1.72 1.71 1.67 1.63
0.27 0.27 0.25 0.20 0.22 0.28 0.32 0.32 0.29 0.32 0.30 0.25 0.23 0.23 0.28 0.22 0.17 0.27 0.29 0.36 0.34 0.56 0.64 0.76 0.70 0.71 0.71 0.75 0.77 0.76 0.81 0.87 0.93 0.98 1.06 1.10 1.09 1.14 1.20 1.27 1.36 1.48 1.56 1.65 1.77 1.84 1.87 1.88 1.88 1.89 1.89 1.87 1.81 1.81 1.78 1.75 1.80 1.84 1.90 1.85 1.78 1.72 1.69
0.27 0.23 0.25 0.24 0.24 0.23 0.24 0.25 0.27 0.27 0.28 0.36 0.33 0.28 0.27 0.24 0.20 0.26 0.29 0.28 0.41 0.60 0.79 0.75 0.73 0.72 0.74 0.75 0.76 0.79 0.81 0.88 0.94 0.99 1.03 1.09 1.14 1.13 1.14 1.18 1.26 1.39 1.51 1.58 1.69 1.81 1.89 1.93 1.91 1.91 1.90 1.88 1.87 1.87 1.82 1.81 1.77 1.78 1.78 1.88 1.84 1.78 1.79
0.24 0.26 0.28 0.27 0.27 0.26 0.25 0.26 0.26 0.27 0.25 0.26 0.23 0.24 0.29 0.27 0.26 0.25 0.30 0.28 0.48 0.66 0.83 0.76 0.73 0.77 0.77 0.79 0.80 0.79 0.82 0.86 0.93 0.98 1.04 1.11 1.13 1.16 1.15 1.17 1.20 1.29 1.42 1.50 1.60 1.71 1.81 1.87 1.89 1.88 1.89 1.90 1.89 1.85 1.84 1.83 1.78 1.76 1.73 1.77 1.76 1.77 1.82
0.26 0.27 0.30 0.32 0.31 0.31 0.29 0.27 0.26 0.28 0.27 0.30 0.27 0.22 0.23 0.26 0.28 0.38 0.34 0.39 0.47 0.75 0.78 0.76 0.74 0.77 0.78 0.81 0.84 0.81 0.83 0.87 0.92 0.95 1.02 1.10 1.15 1.16 1.18 1.18 1.21 1.26 1.34 1.40 1.46 1.53 1.65 1.76 1.82 1.91 1.92 1.89 1.89 1.86 1.83 1.83 1.81 1.78 1.74 1.71 1.75 1.71 1.71
0.31 0.32 0.33 0.32 0.32 0.32 0.29 0.28 0.30 0.29 0.27 0.28 0.29 0.32 0.37 0.25 0.25 0.25 0.33 0.36 0.53 0.73 0.80 0.77 0.77 0.79 0.81 0.82 0.84 0.81 0.84 0.88 0.93 0.94 1.00 1.06 1.10 1.14 1.18 1.22 1.21 1.26 1.30 1.35 1.39 1.43 1.50 1.61 1.71 1.77 1.87 1.91 1.91 1.90 1.91 1.89 1.82 1.84 1.85 1.85 1.81 1.76 1.73
0.26 0.28 0.31 0.29 0.31 0.30 0.28 0.26 0.28 0.30 0.30 0.31 0.31 0.33 0.40 0.29 0.29 0.28 0.26 0.28 0.44 0.71 0.80 0.77 0.76 0.77 0.77 0.78 0.81 0.84 0.84 0.88 0.91 0.94 0.99 1.03 1.07 1.10 1.14 1.15 1.17 1.20 1.25 1.28 1.32 1.38 1.42 1.47 1.60 1.70 1.78 1.89 1.92 1.98 1.97 1.91 1.86 1.88 1.88 1.88 1.84 1.80 1.78
0.20 0.20 0.20 0.22 0.24 0.25 0.27 0.28 0.28 0.29 0.29 0.30 0.29 0.24 0.28 0.25 0.34 0.32 0.27 0.40 0.58 0.70 0.75 0.73 0.75 0.76 0.74 0.78 0.81 0.84 0.86 0.88 0.90 0.93 0.95 1.00 1.03 1.04 1.08 1.11 1.16 1.16 1.18 1.25 1.30 1.36 1.41 1.45 1.50 1.61 1.70 1.81 1.95 1.94 1.96 1.98 1.90 1.90 1.93 1.91 1.84 1.77 1.72
0.31 0.34 0.35 0.36 0.32 0.28 0.24 0.25 0.26 0.27 0.29 0.32 0.32 0.34 0.30 0.25 0.31 0.31 0.40 0.45 0.52 0.57 0.65 0.66 0.70 0.73 0.72 0.72 0.76 0.77 0.79 0.83 0.87 0.90 0.90 0.92 0.94 0.96 0.98 1.01 1.06 1.11 1.17 1.20 1.25 1.31 1.38 1.43 1.47 1.52 1.59 1.69 1.78 1.93 1.94 1.97 1.97 1.93 1.93 1.92 1.89 1.81 1.77
0.33 0.35 0.32 0.34 0.32 0.28 0.26 0.25 0.24 0.27 0.29 0.30 0.32 0.30 0.29 0.40 0.31 0.30 0.43 0.50 0.45 0.54 0.61 0.65 0.68 0.72 0.75 0.76 0.76 0.76 0.77 0.78 0.79 0.80 0.83 0.85 0.87 0.90 0.93 0.96 1.02 1.06 1.12 1.17 1.22 1.28 1.34 1.39 1.46 1.49 1.55 1.63 1.69 1.78 1.88 1.97 2.00 1.97 1.95 1.94 1.90 1.84 1.78
0.29 0.31 0.31 0.32 0.31 0.29 0.27 0.26 0.26 0.25 0.27 0.31 0.30 0.31 0.34 0.36 0.32 0.31 0.43 0.50 0.48 0.51 0.60 0.66 0.71 0.72 0.74 0.76 0.77 0.76 0.77 0.77 0.77 0.77 0.76 0.77 0.79 0.81 0.84 0.89 0.95 1.01 1.07 1.14 1.17 1.21 1.31 1.38 1.41 1.45 1.48 1.56 1.66 1.72 1.81 1.90 1.95 1.97 2.00 1.97 1.92 1.88 1.86
0.28 0.28 0.29 0.30 0.29 0.28 0.28 0.27 0.26 0.26 0.27 0.28 0.30 0.30 0.33 0.35 0.38 0.43 0.45 0.49 0.51 0.53 0.58 0.66 0.70 0.75 0.75 0.78 0.81 0.79 0.74 0.73 0.73 0.73 0.72 0.72 0.75 0.77 0.79 0.83 0.87 0.92 0.99 1.06 1.14 1.20 1.22 1.26 1.31 1.39 1.43 1.48 1.57 1.65 1.76 1.85 1.91 1.95 1.98 1.99 1.99 1.94 1.89
0.25 0.27 0.28 0.29 0.27 0.26 0.26 0.27 0.26 0.26 0.27 0.28 0.29 0.30 0.32 0.34 0.35 0.43 0.48 0.49 0.47 0.57 0.64 0.68 0.73 0.74 0.74 0.74 0.72 0.73 0.74 0.72 0.71 0.70 0.70 0.71 0.71 0.73 0.77 0.81 0.82 0.86 0.90 0.96 1.03 1.10 1.17 1.22 1.24 1.28 1.33 1.40 1.50 1.59 1.69 1.80 1.88 1.93 1.96 1.96 1.98 1.98 1.94
0.24 0.24 0.25 0.25 0.26 0.24 0.26 0.28 0.27 0.26 0.27 0.26 0.27 0.30 0.33 0.33 0.33 0.40 0.47 0.45 0.46 0.56 0.65 0.66 0.69 0.70 0.70 0.66 0.67 0.68 0.70 0.71 0.69 0.68 0.68 0.69 0.70 0.71 0.73 0.76 0.79 0.81 0.84 0.88 0.93 1.00 1.07 1.12 1.15 1.18 1.23 1.30 1.38 1.46 1.59 1.72 1.86 1.94 1.95 1.96 1.97 2.00 2.01
0.23 0.24 0.22 0.22 0.20 0.25 0.24 0.28 0.32 0.36 0.39 0.43 0.42 0.42 0.44 0.42 0.37 0.36 0.35 0.39 0.57 0.57 0.63 0.60 0.61 0.63 0.64 0.68 0.68 0.67 0.68 0.69 0.68 0.67 0.67 0.68 0.70 0.70 0.72 0.74 0.77 0.79 0.82 0.86 0.90 0.93 0.98 1.04 1.07 1.11 1.14 1.18 1.27 1.39 1.47 1.60 1.78 1.88 1.93 1.95 1.98 2.01 2.05
0.24 0.22 0.22 0.21 0.21 0.16 0.20 0.40 0.38 0.36 0.34 0.37 0.34 0.34 0.37 0.41 0.51 0.46 0.54 0.56 0.59 0.58 0.60 0.59 0.59 0.60 0.63 0.65 0.67 0.71 0.69 0.66 0.65 0.64 0.65 0.65 0.68 0.69 0.71 0.73 0.74 0.77 0.81 0.85 0.89 0.92 0.96 0.99 1.02 1.08 1.11 1.12 1.19 1.31 1.41 1.52 1.63 1.75 1.87 1.93 1.96 1.99 2.04
0.22 0.22 0.19 0.19 0.14 0.15 0.35 0.40 0.40 0.36 0.36 0.38 0.39 0.39 0.40 0.42 0.49 0.52 0.54 0.55 0.57 0.58 0.61 0.63 0.66 0.67 0.67 0.68 0.68 0.66 0.68 0.69 0.67 0.65 0.63 0.62 0.62 0.62 0.65 0.67 0.69 0.71 0.73 0.77 0.83 0.86 0.92 0.96 0.99 1.03 1.04 1.06 1.14 1.22 1.30 1.39 1.50 1.62 1.76 1.85 1.90 1.94 1.99
0.25 0.18 0.18 0.13 0.12 0.31 0.33 0.33 0.38 0.40 0.37 0.38 0.36 0.37 0.41 0.46 0.49 0.49 0.46 0.52 0.56 0.59 0.60 0.63 0.66 0.66 0.65 0.69 0.70 0.68 0.67 0.65 0.62 0.62 0.62 0.63 0.62 0.60 0.60 0.60 0.63 0.66 0.67 0.69 0.71 0.76 0.86 0.90 0.94 0.95 0.95 1.02 1.05 1.11 1.23 1.29 1.37 1.46 1.59 1.72 1.80 1.86 1.92
0.16 0.16 0.16 0.14 0.29 0.26 0.26 0.26 0.29 0.32 0.30 0.29 0.29 0.27 0.35 0.44 0.47 0.50 0.50 0.51 0.53 0.54 0.57 0.60 0.60 0.61 0.59 0.60 0.64 0.67 0.66 0.64 0.64 0.61 0.60 0.61 0.62 0.62 0.62 0.61 0.60 0.62 0.64 0.63 0.66 0.69 0.72 0.78 0.85 0.88 0.92 0.96 0.97 1.00 1.08 1.18 1.25 1.32 1.39 1.46 1.57 1.70 1.81
0.22 0.19 0.16 0.16 0.14 0.12 0.20 0.29 0.36 0.41 0.41 0.38 0.37 0.36 0.38 0.41 0.44 0.49 0.48 0.47 0.47 0.50 0.53 0.55 0.54 0.53 0.47 0.44 0.53 0.63 0.64 0.63 0.61 0.63 0.62 0.62 0.61 0.61 0.60 0.61 0.61 0.61 0.62 0.62 0.62 0.63 0.64 0.65 0.70 0.79 0.86 0.88 0.89 0.92 0.96 1.00 1.08 1.17 1.24 1.30 1.39 1.47 1.56
0.18 0.18 0.16 0.14 0.11 0.16 0.35 0.33 0.32 0.36 0.37 0.35 0.35 0.23 0.25 0.41 0.44 0.43 0.46 0.44 0.46 0.47 0.48 0.50 0.47 0.42 0.38 0.41 0.52 0.63 0.61 0.59 0.59 0.58 0.59 0.59 0.60 0.59 0.59 0.58 0.57 0.59 0.61 0.62 0.63 0.62 0.61 0.60 0.63 0.66 0.71 0.77 0.81 0.82 0.88 0.94 0.98 1.01 1.09 1.18 1.26 1.36 1.45
0.20 0.20 0.16 0.14 0.18 0.20 0.30 0.33 0.34 0.34 0.41 0.30 0.34 0.17 0.21 0.42 0.43 0.43 0.45 0.45 0.45 0.48 0.50 0.48 0.44 0.39 0.34 0.41 0.56 0.62 0.62 0.58 0.55 0.55 0.55 0.55 0.56 0.57 0.57 0.57 0.56 0.56 0.58 0.59 0.58 0.58 0.58 0.61 0.64 0.64 0.63 0.65 0.69 0.75 0.79 0.85 0.91 0.95 1.02 1.08 1.14 1.23 1.36
0.23 0.17 0.17 0.20 0.23 0.28 0.34 0.33 0.35 0.37 0.35 0.33 0.20 0.15 0.34 0.44 0.45 0.48 0.46 0.47 0.48 0.50 0.47 0.46 0.41 0.46 0.49 0.52 0.56 0.58 0.55 0.52 0.51 0.53 0.54 0.53 0.54 0.53 0.54 0.54 0.57 0.54 0.54 0.53 0.53 0.54 0.56 0.60 0.63 0.64 0.65 0.62 0.61 0.64 0.70 0.74 0.79 0.87 0.97 1.05 1.11 1.14 1.18
0.20 0.22 0.17 0.18 0.24 0.36 0.33 0.36 0.37 0.37 0.27 0.15 0.16 0.42 0.51 0.47 0.45 0.46 0.46 0.45 0.46 0.45 0.43 0.44 0.44 0.49 0.50 0.48 0.47 0.47 0.47 0.47 0.47 0.48 0.49 0.50 0.51 0.52 0.53 0.54 0.54 0.53 0.52 0.52 0.52 0.52 0.55 0.56 0.58 0.60 0.62 0.61 0.62 0.62 0.62 0.65 0.71 0.80 0.87 0.95 1.02 1.08 1.11
0.23 0.22 0.18 0.17 0.13 0.32 0.35 0.36 0.35 0.34 0.23 0.32 0.46 0.48 0.46 0.41 0.42 0.39 0.38 0.37 0.38 0.38 0.36 0.38 0.39 0.40 0.40 0.41 0.41 0.40 0.41 0.41 0.41 0.42 0.43 0.44 0.44 0.45 0.46 0.47 0.49 0.49 0.48 0.48 0.48 0.51 0.53 0.55 0.57 0.57 0.58 0.58 0.60 0.62 0.60 0.62 0.67 0.71 0.76 0.83 0.91 0.98 1.04
0.16 0.17 0.14 0.14 0.26 0.36 0.41 0.35 0.26 0.31 0.35 0.47 0.46 0.38 0.36 0.35 0.36 0.35 0.36 0.38 0.37 0.38 0.36 0.35 0.36 0.37 0.37 0.37 0.38 0.40 0.40 0.40 0.41 0.41 0.42 0.43 0.43 0.43 0.44 0.44 0.45 0.47 0.47 0.48 0.47 0.48 0.49 0.53 0.55 0.57 0.57 0.55 0.57 0.58 0.59 0.66 0.66 0.65 0.66 0.72 0.79 0.86 0.92
0.20 0.20 0.25 0.34 0.31 0.35 0.38 0.39 0.40 0.40 0.42 0.41 0.37 0.31 0.34 0.37 0.37 0.37 0.35 0.36 0.40 0.39 0.36 0.36 0.35 0.35 0.36 0.35 0.38 0.37 0.37 0.38 0.38 0.38 0.38 0.39 0.39 0.40 0.40 0.41 0.43 0.44 0.45 0.45 0.46 0.46 0.48 0.49 0.52 0.54 0.56 0.54 0.55 0.55 0.60 0.64 0.63 0.62 0.62 0.63 0.67 0.74 0.82
0.33 0.32 0.34 0.35 0.33 0.35 0.38 0.43 0.44 0.41 0.38 0.39 0.36 0.35 0.33 0.36 0.38 0.41 0.35 0.37 0.37 0.37 0.38 0.34 0.34 0.34 0.37 0.38 0.39 0.39 0.40 0.39 0.39 0.40 0.39 0.39 0.40 0.39 0.39 0.39 0.40 0.42 0.43 0.44 0.45 0.45 0.46 0.50 0.51 0.53 0.54 0.55 0.52 0.55 0.61 0.62 0.62 0.61 0.62 0.61 0.61 0.64 0.71
0.28 0.22 0.32 0.30 0.30 0.35 0.37 0.39 0.42 0.43 0.43 0.42 0.40 0.38 0.36 0.39 0.40 0.40 0.39 0.36 0.36 0.35 0.35 0.33 0.32 0.32 0.35 0.36 0.38 0.40 0.41 0.41 0.41 0.41 0.40 0.39 0.39 0.38 0.37 0.38 0.39 0.39 0.40 0.40 0.42 0.45 0.45 0.48 0.51 0.52 0.52 0.53 0.54 0.56 0.59 0.61 0.62 0.60 0.59 0.60 0.61 0.62 0.63
0.28 0.25 0.39 0.39 0.40 0.39 0.40 0.40 0.39 0.40 0.41 0.41 0.43 0.42 0.42 0.42 0.43 0.41 0.40 0.39 0.36 0.36 0.35 0.35 0.35 0.35 0.37 0.36 0.37 0.37 0.38 0.39 0.39 0.40 0.40 0.40 0.40 0.40 0.41 0.40 0.40 0.40 0.40 0.39 0.40 0.42 0.44 0.48 0.50 0.52 0.53 0.52 0.52 0.54 0.56 0.58 0.58 0.58 0.57 0.57 0.58 0.61 0.64
0.36 0.39 0.39 0.42 0.41 0.39 0.39 0.40 0.41 0.43 0.44 0.44 0.45 0.43 0.42 0.43 0.42 0.42 0.41 0.40 0.38 0.38 0.37 0.38 0.38 0.36 0.37 0.36 0.36 0.36 0.37 0.38 0.39 0.40 0.40 0.42 0.42 0.42 0.42 0.42 0.43 0.40 0.39 0.39 0.40 0.40 0.42 0.46 0.48 0.49 0.51 0.53 0.53 0.52 0.53 0.55 0.56 0.56 0.56 0.58 0.60 0.60 0.63
0.32 0.33 0.37 0.43 0.35 0.33 0.39 0.42 0.43 0.43 0.44 0.45 0.47 0.48 0.45 0.44 0.43 0.43 0.40 0.40 0.41 0.40 0.39 0.39 0.38 0.36 0.36 0.38 0.38 0.36 0.36 0.36 0.38 0.38 0.39 0.40 0.41 0.41 0.42 0.42 0.42 0.42 0.42 0.41 0.40 0.40 0.42 0.45 0.47 0.48 0.50 0.52 0.54 0.55 0.54 0.54 0.55 0.54 0.54 0.55 0.56 0.58 0.60
0.37 0.44 0.49 0.52 0.50 0.47 0.47 0.49 0.50 0.49 0.49 0.47 0.45 0.45 0.46 0.47 0.46 0.45 0.42 0.39 0.40 0.40 0.41 0.42 0.38 0.37 0.37 0.38 0.38 0.37 0.37 0.37 0.38 0.38 0.38 0.37 0.38 0.40 0.41 0.41 0.41 0.41 0.41 0.43 0.42 0.42 0.44 0.47 0.48 0.50 0.51 0.52 0.53 0.55 0.56 0.56 0.56 0.55 0.55 0.54 0.52 0.51 0.55
0.54 0.56 0.56 0.58 0.55 0.52 0.54 0.56 0.55 0.53 0.52 0.49 0.48 0.49 0.50 0.50 0.50 0.48 0.45 0.43 0.40 0.40 0.42 0.42 0.42 0.41 0.40 0.40 0.39 0.37 0.37 0.38 0.38 0.37 0.37 0.37 0.38 0.39 0.41 0.42 0.42 0.42 0.43 0.44 0.44 0.44 0.47 0.48 0.49 0.51 0.52 0.53 0.54 0.55 0.56 0.57 0.57 0.55 0.55 0.53 0.49 0.49 0.52
0.55 0.62 0.63 0.63 0.62 0.61 0.62 0.62 0.63 0.62 0.60 0.54 0.51 0.51 0.52 0.53 0.52 0.50 0.46 0.45 0.46 0.44 0.41 0.40 0.43 0.43 0.42 0.41 0.40 0.39 0.38 0.39 0.39 0.38 0.38 0.38 0.38 0.38 0.39 0.42 0.42 0.43 0.44 0.46 0.47 0.48 0.48 0.49 0.49 0.50 0.50 0.52 0.55 0.56 0.57 0.58 0.57 0.55 0.54 0.53 0.51 0.48 0.49
Wind_Speed
21 22 23 24 22 21 23 26 26 23 21 19 19 18 20 21 19 18 20 19 17 18 17 17 16 13 12 11 9 9 8 8 9 10 10 10 10 10 10 11 13 15 18 20 20 20 21 21 21 21 22 22 23 22 22 22 22 21 21 21 20 20 19
20 21 22 24 23 20 21 25 26 23 21 20 19 18 20 21 19 18 21 22 21 20 18 17 17 15 13 12 10 9 9 9 9 9 9 9 9 9 9 10 11 13 16 18 20 20 21 21 21 21 22 22 22 23 22 22 23 22 22 22 21 21 20
20 21 21 23 24 23 21 21 24 24 23 23 22 20 20 22 20 18 21 23 21 20 18 17 17 16 14 13 12 10 9 9 9 9 9 9 9 9 9 10 11 13 15 17 19 20 21 21 21 21 22 22 22 23 23 22 23 23 23 22 22 22 21
20 21 21 21 23 24 23 21 23 24 23 23 23 22 21 21 20 18 20 22 20 18 17 16 16 15 14 14 13 11 10 9 10 10 10 10 9 9 9 9 10 11 13 16 17 19 20 20 21 21 21 22 22 22 22 22 22 23 23 23 23 22 22
21 20 20 20 20 21 23 23 24 25 24 22 22 24 22 20 20 20 20 21 19 18 18 17 16 15 15 15 14 13 11 10 10 10 10 10 10 9 9 9 9 9 9 11 13 15 17 18 20 21 21 21 22 22 22 22 22 23 23 23 23 23 23
20 19 19 20 20 19 21 21 21 23 25 24 23 24 23 21 19 19 21 20 19 19 19 17 16 16 15 15 14 13 12 11 11 10 10 10 10 10 9 8 8 8 8 8 10 12 13 14 17 20 21 21 21 22 21 21 22 22 22 23 24 23 23
18 19 19 20 21 21 21 20 20 21 23 23 24 22 23 24 21 18 19 18 18 20 20 18 17 16 16 15 14 13 13 12 11 11 10 10 10 9 9 8 8 8 8 8 9 11 12 12 13 16 19 20 20 21 21 21 22 22 22 23 23 23 23
17 19 20 19 21 22 21 20 20 21 22 23 23 19 19 24 24 21 20 18 17 20 20 19 18 16 16 15 14 14 13 12 12 11 10 10 10 9 8 8 8 8 8 9 9 10 11 12 12 14 17 18 19 20 21 22 22 21 22 22 23 24 24
19 20 20 20 21 21 20 20 20 21 21 22 24 21 20 21 21 22 22 19 18 20 21 20 19 18 16 16 15 14 13 13 12 12 11 11 10 10 9 8 8 8 8 9 9 10 10 11 12 13 14 16 18 19 20 22 22 22 22 22 22 23 24
19 19 20 20 20 20 20 19 20 21 21 22 23 23 23 23 20 20 21 19 19 20 21 20 20 18 17 16 16 15 14 13 13 12 12 11 11 10 9 9 8 8 9 9 9 10 10 11 12 13 13 14 16 18 20 21 22 22 22 22 22 22 23
16 16 17 18 19 19 19 19 19 20 21 21 22 22 23 23 21 19 19 21 22 21 21 21 20 19 18 17 16 16 15 14 13 13 12 12 12 11 11 10 9 9 9 9 9 10 10 11 12 13 13 14 14 16 18 20 22 22 22 22 22 23 23
15 15 16 18 18 18 18 18 18 19 20 20 20 21 20 20 21 20 20 23 24 23 22 21 20 19 18 17 17 16 16 15 15 14 13 12 12 12 11 10 10 10 10 10 10 10 11 11 11 12 13 14 14 15 16 18 20 22 22 22 23 23 24
16 16 17 17 18 19 19 19 18 18 19 19 19 19 19 19 20 21 22 24 24 24 23 21 20 20 19 18 17 16 16 16 15 15 14 13 12 12 12 11 11 11 11 11 11 11 12 12 12 12 12 13 14 15 16 17 18 20 21 22 23 23 24
17 17 18 18 18 19 20 20 20 20 19 19 19 19 19 19 18 20 23 24 23 23 23 21 21 21 19 19 18 17 16 15 15 15 14 14 13 13 13 13 12 12 12 12 12 12 13 13 13 13 13 13 13 14 16 17 18 19 21 22 22 23 24
17 18 18 18 19 19 20 20 21 21 21 20 20 20 20 20 19 20 22 23 23 22 21 21 22 22 21 20 19 17 17 16 15 15 15 14 14 14 14 14 14 14 13 13 13 13 14 14 14 14 14 14 14 14 15 17 18 19 20 22 22 22 23
17 18 18 18 19 20 20 20 21 22 22 21 21 21 21 21 22 22 23 24 24 23 22 22 23 23 22 21 19 19 18 17 16 15 15 15 15 15 15 14 14 14 14 14 14 14 15 16 16 16 16 16 15 15 15 16 18 19 20 21 22 22 23
17 17 18 18 19 20 21 21 21 21 21 21 21 21 21 21 22 23 23 23 23 24 24 23 23 23 22 21 20 20 19 18 17 17 16 16 16 15 15 15 15 15 15 15 15 15 16 16 17 17 17 17 17 17 16 17 17 18 19 20 21 22 23
16 17 17 18 20 20 20 20 21 20 21 21 21 21 22 22 22 22 22 22 23 24 25 24 23 23 22 22 22 21 20 20 19 18 18 17 17 16 16 16 15 15 15 16 16 16 16 17 17 17 18 18 19 18 18 18 17 18 19 20 20 21 23
16 16 18 19 20 19 18 19 20 21 21 22 21 21 22 23 23 23 23 23 24 24 24 23 24 24 24 24 24 23 22 21 21 20 20 19 19 18 18 17 17 16 16 16 16 16 17 17 17 17 18 18 18 19 19 19 18 18 19 19 20 21 22
15 17 19 18 17 18 18 19 20 21 22 23 22 22 23 23 23 23 24 24 24 25 25 25 25 25 25 25 25 25 23 23 23 22 22 21 21 21 20 20 19 19 18 18 18 18 18 18 18 18 18 18 18 19 19 19 19 19 19 20 20 20 21
15 16 18 17 16 18 20 20 21 21 22 22 22 22 23 24 24 24 24 25 25 25 26 26 25 26 26 26 27 27 25 24 24 24 24 24 24 23 23 23 22 22 21 21 20 20 19 19 19 19 19 20 20 20 20 20 20 20 20 20 20 21 21
15 15 16 17 17 18 19 20 20 20 20 21 22 22 23 24 24 25 25 26 26 26 26 26 26 26 27 27 27 28 27 26 26 26 26 26 26 26 26 25 25 24 24 23 23 23 22 21 21 20 21 21 21 21 21 21 22 22 21 21 21 21 22
15 16 16 16 16 16 17 18 19 19 19 20 21 23 24 24 25 25 26 26 27 26 26 26 27 27 27 27 27 28 27 27 27 27 27 27 27 27 27 27 27 27 27 27 26 25 25 24 23 23 22 22 22 22 22 22 23 23 23 23 22 22 22
15 16 16 15 15 14 16 17 18 18 18 19 21 22 23 23 24 25 26 26 26 26 26 27 28 28 28 27 27 28 28 28 28 29 29 29 29 29 29 29 29 29 29 29 29 28 28 27 26 25 25 24 24 24 24 24 24 24 24 25 25 24 24
15 16 17 16 15 14 16 17 17 17 18 19 21 21 20 21 23 23 24 25 25 26 26 27 28 28 28 28 29 29 29 30 30 30 31 31 31 31 31 31 31 31 31 31 31 31 30 30 29 29 28 27 26 26 25 25 25 25 25 26 26 26 26
16 16 17 17 16 16 17 18 17 18 18 18 19 18 19 20 21 22 23 24 24 25 26 27 28 28 29 29 31 31 31 31 32 32 32 32 32 33 33 33 33 33 33 33 33 33 33 32 32 31 31 31 30 29 28 28 27 27 27 27 28 28 28
16 17 18 18 17 16 18 19 18 20 19 18 18 19 19 20 21 22 23 24 24 25 26 27 28 29 29 30 31 32 32 32 33 33 33 34 34 34 34 35 35 35 35 35 36 36 35 35 34 34 34 34 33 33 32 31 30 29 29 29 29 29 29
15 16 16 17 16 16 18 19 18 20 20 18 18 19 20 20 21 22 22 23 24 25 26 26 27 28 29 30 31 31 32 32 33 34 34 35 35 36 36 36 36 37 37 37 38 38 38 37 37 37 37 37 36 36 35 34 33 32 31 31 31 31 31
14 14 14 14 14 16 19 18 17 18 19 19 19 20 20 21 22 22 22 23 24 25 26 26 27 28 29 29 30 31 32 32 33 34 34 35 36 36 37 38 38 38 39 39 39 40 40 40 40 39 39 39 39 39 38 37 36 35 35 34 33 33 32
13 14 15 15 15 16 18 18 18 18 19 20 20 21 21 21 22 22 23 23 24 25 25 26 27 28 29 30 30 31 32 33 33 34 35 35 36 37 38 38 39 40 40 41 41 41 42 42 42 42 41 42 42 41 41 40 39 39 38 37 36 35 35
13 13 14 15 16 17 17 18 19 19 20 20 21 21 22 21 22 22 23 23 24 25 25 26 27 28 29 30 31 32 33 33 34 35 35 36 36 37 38 38 39 40 41 42 42 42 43 43 43 43 43 44 44 43 43 42 42 41 41 40 39 38 37
16 15 14 14 15 16 17 18 18 19 20 20 21 21 21 21 22 22 22 23 24 24 25 26 27 28 29 30 31 31 33 34 35 36 36 37 38 38 39 39 40 40 41 42 42 43 44 44 44 44 45 45 45 45 45 44 44 43 43 42 42 41 40
18 18 18 17 17 17 19 20 20 20 20 20 20 21 21 22 22 22 23 23 24 24 25 26 27 28 29 29 30 31 32 34 35 36 37 38 39 40 40 40 41 41 41 42 43 44 44 44 45 46 46 46 46 46 46 46 46 45 45 44 44 43 42
18 18 18 18 18 19 19 20 21 21 22 21 21 21 21 22 22 22 23 23 24 25 26 26 27 28 29 29 31 32 33 34 35 36 38 39 40 41 41 42 42 43 43 43 44 44 44 45 45 46 47 47 47 47 47 47 47 46 46 45 45 45 44
19 18 17 18 19 19 19 19 19 20 21 22 22 21 22 22 21 21 22 23 23 25 26 26 27 28 29 30 31 32 33 34 35 37 38 39 40 41 42 43 44 44 45 45 45 46 45 45 46 47 47 48 48 48 48 48 48 48 47 47 46 46 45
21 20 20 20 20 21 21 20 20 21 21 22 22 22 22 22 22 22 22 22 23 24 25 26 27 28 30 31 32 33 34 35 36 37 38 39 41 41 43 44 45 45 46 47 47 47 47 46 47 47 48 48 49 49 49 49 50 50 49 48 48 47 46
23 22 21 21 21 22 22 21 21 22 22 22 23 23 23 23 22 22 22 23 24 25 25 26 27 29 30 31 33 34 35 36 37 39 39 40 41 42 43 44 45 46 47 47 48 48 48 48 48 48 49 49 49 50 50 51 51 51 51 51 50 49 48
Wind_Direction
209 210 210 211 211 209 207 208 210 211 212 214 214 209 204 205 205 201 199 198 197 196 197 200 201 201 199 201 206 210 214 214 209 206 208 211 213 216 219 218 217 217 213 210 211 209 207 207 207 207 207 207 209 212 213 212 212 211 210 209 209 209 210
206 209 210 209 211 212 208 208 209 208 211 216 215 209 204 206 208 203 200 199 200 202 203 202 205 206 204 203 204 209 214 217 216 212 211 212 213 215 220 222 223 222 216 211 211 212 211 210 209 209 208 208 210 212 214 214 213 213 212 211 211 211 211
201 204 207 206 209 212 212 211 209 208 211 213 212 212 208 206 208 204 199 199 202 206 204 203 205 207 208 206 205 207 212 217 220 219 218 215 213 212 213 216 220 223 220 215 212 212 212 211 210 210 209 209 211 212 213 214 214 214 214 214 214 213 212
200 201 205 205 206 209 212 212 211 210 213 212 211 213 212 209 209 205 200 201 203 204 204 204 204 205 207 207 207 208 210 213 217 219 220 219 217 214 211 211 213 216 217 215 214 213 212 212 212 212 211 210 211 212 212 214 213 214 215 216 216 216 215
203 204 206 206 205 206 208 210 210 209 211 213 213 213 214 214 213 208 205 205 203 202 207 206 202 202 205 206 207 210 210 211 212 215 217 218 219 219 215 213 212 212 212 211 211 211 213 214 212 212 213 212 212 212 213 214 213 214 217 217 217 217 217
204 204 206 208 208 208 208 209 210 209 209 211 212 212 213 215 218 214 209 206 203 205 209 208 203 202 203 203 205 209 210 211 211 212 215 215 218 220 218 214 210 212 214 209 207 209 213 216 214 213 214 214 214 214 214 215 214 215 218 217 217 217 218
202 201 205 209 210 210 209 210 211 210 211 213 213 214 213 212 216 218 210 205 205 208 209 207 203 202 202 201 203 206 209 211 212 213 215 215 217 218 216 213 209 208 211 209 207 210 215 218 216 215 216 217 218 216 214 214 214 216 217 217 218 219 220
202 203 207 209 210 211 210 210 211 211 213 214 215 219 217 213 213 215 212 209 208 208 207 205 201 199 200 201 202 203 206 210 212 214 216 217 219 218 213 210 207 206 206 208 210 214 217 218 217 216 217 219 220 216 213 214 216 217 218 218 219 220 221
203 206 209 209 208 209 209 209 210 212 213 215 217 220 219 216 215 216 219 215 208 207 206 203 201 199 199 200 201 203 204 208 211 213 214 215 218 220 217 212 207 205 206 209 214 217 220 222 221 219 218 219 220 218 217 218 218 219 220 220 219 220 220
207 208 209 208 207 206 208 209 210 212 214 215 217 217 218 218 216 218 220 210 200 203 204 202 201 201 201 201 201 203 204 207 211 213 214 214 217 222 223 221 215 211 210 212 216 219 222 226 226 224 222 221 222 222 222 222 221 222 224 223 221 221 221
209 207 205 207 208 206 207 209 210 213 215 216 217 217 219 218 213 214 212 200 194 199 202 202 203 203 204 204 205 206 209 211 212 215 215 215 219 223 226 228 226 222 218 217 219 222 224 227 228 228 226 225 224 223 224 225 225 225 226 226 224 223 222
208 205 203 207 209 207 207 209 210 212 214 216 216 216 217 219 216 213 205 198 196 198 201 203 205 205 206 207 209 212 213 214 215 217 217 217 221 226 229 232 233 232 229 225 224 225 226 229 230 231 231 229 226 224 224 226 227 227 228 228 227 226 224
209 209 208 209 210 209 210 212 211 212 214 213 213 214 216 220 219 211 202 200 201 201 203 206 207 207 208 209 213 215 215 216 217 218 219 220 223 226 230 234 236 236 235 233 231 230 230 231 233 233 235 235 232 230 228 227 227 228 229 229 229 228 227
208 212 212 212 212 212 212 213 213 213 214 213 213 213 214 213 212 206 202 203 205 206 208 209 209 209 210 211 214 217 218 219 219 219 221 223 226 228 230 233 236 238 239 238 236 235 235 236 237 237 237 237 237 236 233 230 228 229 230 230 230 230 229
211 213 214 214 215 214 213 213 214 214 213 213 213 213 212 211 209 205 204 205 209 211 211 210 210 211 212 214 216 217 220 223 222 222 224 227 229 231 232 233 235 238 241 241 240 240 240 240 240 241 240 239 238 238 237 234 232 231 231 231 231 231 229
216 213 215 216 216 217 216 213 212 211 212 212 213 213 215 214 210 206 208 212 214 214 213 212 212 213 215 217 219 219 222 225 226 226 227 229 232 234 235 237 237 239 241 243 244 245 244 243 243 244 244 242 239 239 240 238 236 234 232 231 231 231 229
218 214 218 219 217 219 219 214 211 211 211 212 213 214 216 216 214 213 216 217 215 214 215 215 216 216 218 220 222 222 223 225 227 228 229 231 233 235 237 239 239 240 241 243 245 246 245 245 245 245 244 243 241 241 242 240 238 236 235 232 231 232 231
220 216 219 221 221 222 219 215 216 217 215 214 214 214 215 217 218 218 218 217 215 216 218 218 219 221 223 223 222 223 224 225 227 229 230 232 234 235 237 239 240 242 243 244 246 247 246 245 245 244 243 242 240 241 241 241 239 238 237 234 233 233 233
224 218 219 222 223 221 217 217 220 222 221 219 217 216 217 218 218 217 217 217 217 219 221 222 223 225 226 224 223 224 225 226 228 229 230 233 235 236 237 239 241 243 245 247 249 249 248 247 245 245 244 243 241 241 241 241 241 240 239 237 235 236 235
225 220 221 224 223 220 220 222 222 221 222 220 219 220 220 220 220 219 219 219 219 221 223 224 226 228 227 226 226 226 228 229 230 231 232 233 235 237 239 240 242 243 245 248 251 251 249 249 248 247 247 245 244 243 242 241 242 241 240 238 238 239 238
226 225 224 224 225 225 224 223 222 222 223 222 223 224 222 223 225 224 222 222 223 224 225 227 229 231 231 230 229 228 230 232 233 234 235 236 236 238 239 241 243 243 244 246 250 251 250 250 249 249 248 247 246 245 243 242 243 243 242 240 240 241 241
227 230 227 226 229 229 223 220 220 223 224 225 227 228 225 224 226 226 225 225 226 227 228 230 232 233 235 235 233 230 232 236 237 238 238 239 240 241 242 243 244 244 245 247 249 250 250 250 250 250 249 248 248 247 246 244 244 244 244 243 242 242 243
228 230 230 228 230 228 221 219 219 221 224 227 229 230 227 224 225 227 227 227 228 229 231 233 234 235 236 236 234 233 237 241 241 241 241 242 243 244 245 246 246 246 247 248 248 248 248 249 250 251 251 250 249 249 248 247 246 245 245 245 244 244 244
229 231 233 232 232 228 221 219 219 220 224 228 229 229 227 224 225 227 228 228 228 230 232 235 235 235 236 237 238 240 244 246 245 245 245 245 245 246 246 247 248 249 250 249 247 247 248 249 250 250 250 250 249 249 249 249 248 247 247 246 245 245 246
231 232 234 235 233 227 222 219 218 220 224 228 229 229 225 223 224 226 227 229 230 232 234 236 236 237 239 242 244 246 248 249 249 249 249 248 248 248 248 249 249 250 250 249 249 249 248 249 249 249 249 249 249 249 249 249 249 249 249 249 248 247 246
235 234 236 237 235 228 223 221 220 223 228 230 228 226 223 223 225 227 230 233 234 235 237 239 239 241 243 245 246 248 249 250 251 251 251 251 251 251 250 251 250 250 250 250 251 250 249 249 249 248 248 249 249 248 248 249 249 250 250 250 250 249 248
235 236 236 238 239 232 224 222 224 228 232 231 227 225 227 229 231 232 235 237 237 239 240 241 242 243 245 246 247 248 249 250 251 252 252 253 253 253 252 252 251 251 251 251 252 251 251 250 249 248 249 249 249 248 248 248 249 249 250 250 250 250 250
234 235 234 236 239 232 224 225 231 231 230 230 230 232 233 234 235 237 238 239 239 241 242 244 244 245 246 247 248 249 250 251 251 252 253 254 254 254 254 253 253 252 252 252 252 252 251 251 250 250 249 249 249 249 249 249 249 249 249 249 250 250 250
237 239 237 236 236 229 226 232 236 232 230 233 235 237 238 238 238 240 241 242 242 242 244 246 247 247 248 249 250 250 251 252 252 253 254 254 255 255 255 255 255 254 253 253 253 253 252 251 251 250 250 249 249 249 249 249 249 249 249 249 249 249 250
242 243 240 237 235 231 230 235 238 234 234 236 237 239 241 241 241 242 244 245 246 245 246 248 249 250 251 251 252 253 253 254 254 255 255 255 255 256 256 257 256 256 255 254 253 253 253 252 251 251 250 250 250 250 249 249 249 249 250 249 249 249 249
242 243 239 236 237 236 234 236 237 236 237 238 239 240 242 243 244 245 246 248 248 248 249 250 251 252 253 253 254 255 255 256 256 256 256 256 256 257 257 257 257 257 256 255 254 253 254 253 252 252 251 250 250 250 250 249 249 249 250 250 249 249 249
242 245 242 239 241 241 239 240 240 239 239 239 239 241 243 244 245 246 248 249 250 250 251 251 252 254 254 255 256 256 257 257 258 258 258 258 258 259 258 258 258 257 256 255 255 254 253 253 253 253 252 251 251 250 250 250 250 249 249 249 249 249 249
244 247 246 243 243 244 244 243 242 243 243 242 240 241 242 244 245 247 249 250 251 252 253 254 256 257 258 258 259 259 259 259 259 260 260 260 260 260 260 259 258 257 256 256 255 255 254 254 253 253 253 252 251 251 250 250 250 249 249 249 249 249 249
246 247 247 247 247 249 248 244 242 243 243 243 242 241 242 244 246 248 250 251 252 253 255 256 258 259 260 261 262 262 261 261 262 262 262 262 262 261 260 260 259 258 257 257 256 256 255 254 254 253 253 252 251 251 250 250 249 249 249 248 248 248 248
249 250 251 251 250 252 252 248 245 244 242 242 242 242 244 246 248 250 252 254 255 256 257 258 260 261 262 264 264 264 264 264 264 264 264 263 263 262 262 261 260 259 258 258 257 256 256 255 254 254 253 252 252 251 250 249 249 249 248 248 248 247 247
253 253 254 254 252 253 253 251 248 246 243 242 242 243 245 247 249 251 254 256 258 260 261 262 263 264 265 266 266 267 267 267 267 267 266 265 265 264 263 262 260 260 259 258 258 257 256 256 255 254 253 252 252 251 250 249 248 248 247 247 247 247 247
253 253 254 253 253 254 253 251 250 248 245 243 244 244 245 247 250 253 256 258 261 263 265 266 267 268 268 269 269 269 269 269 268 268 267 267 266 265 264 262 261 260 259 259 258 257 257 256 256 255 254 253 252 251 250 249 248 248 247 247 247 247 247